Weather Roundup
Issued by NWS Springfield, MO

Home | Current Version | Previous Version | Text Only | Print | Product List | Glossary On
Versions: 1 2 3 4 5 6 7 8 9 10 11 12 13 14 15 16 17 18 19 20 21 22 23 24 25 26 27 28 29 30 31 32 33 34 35 36 37 38 39 40 41 42 43 44 45 46 47 48 49 50
869
NZUS99 KSGF 220257
HRRSGF

HOURLY WEATHER
NATIONAL WEATHER SERVICE SPRINGFIELD MO
900 PM CST WED FEB 21 2018

......SGF CWA......

CITY           SKY/WX    TMP DP  RH WIND       PRES   REMARKS
SPRINGFIELD    CLOUDY    29  27  92 E15       30.29F WCI  18
JOPLIN         CLOUDY    29  28  96 NE10      30.38R WCI  20
WEST PLAINS    FRZ RAIN  32  30  92 NE10      30.39F FOG     WCI  24
ROLLA          CLOUDY    27  26  96 NE15      30.44F WCI  15
BRANSON        FRZ RAIN  30  30 100 NE7       30.33F FOG     WCI  23

......SURROUNDING SGF CWA......

CITY           SKY/WX    TMP DP  RH WIND       PRES   REMARKS
CHANUTE        CLOUDY    28  24  85 NE12      30.40F WCI  18
PARSONS        CLOUDY    28  26  92 NE8G18    30.40F WCI  20
COFFEYVILLE    CLOUDY    29  26  89 NE15      30.39F WCI  18
EMPORIA        MIX PCPN  24  21  88 NE9       30.42F FOG     WCI  14
HARRISON AR    CLOUDY    31  31 100 SE14      30.33F WCI  21
NEAR YELLVILLE MIX PCPN  32  30  93 CALM      30.41F

......KANSAS AND MISSOURI......

CITY           SKY/WX    TMP DP  RH WIND       PRES   REMARKS
KANSAS CTY INT CLOUDY    27  23  85 E16       30.47F WCI  15
SEDALIA        CLOUDY    29  27  92 NE10      30.48F WCI  20
ST JOSEPH      CLOUDY    27  23  85 NE12      30.51F WCI  17
ST LOUIS       CLOUDY    32  30  92 N8        30.52R WCI  25
WICHITA        FRZ DRZL  25  22  88 NE13      30.39F WCI  14
TOPEKA         MIX PCPN  28  24  85 NE14      30.47F WCI  17
OLATHE         CLOUDY    25  22  88 NE10G20   30.44F WCI  15

......TENNESSEE......

CITY           SKY/WX    TMP DP  RH WIND       PRES   REMARKS
MEMPHIS        NOT AVBL
NASHVILLE      LGT RAIN  50  48  93 N10       30.33F

......ARKANSAS.......

CITY           SKY/WX    TMP DP  RH WIND       PRES   REMARKS
FAYETTEVILLE   CLOUDY    34  33  96 E7        30.25F WCI  28
FT SMITH       LGT RAIN  39  38  96 E12       30.27F WCI  32
LITTLE ROCK    HVY RAIN  40  40 100 N18       30.33S FOG     WCI  31

......OKLAHOMA.......

CITY           SKY/WX    TMP DP  RH WIND       PRES   REMARKS
TULSA          CLOUDY    30  28  92 N14       30.37F WCI  19
PONCA CITY     CLOUDY    28  24  85 NE12      30.38S WCI  18
MCALESTER      CLOUDY    33  32  96 N10       30.29S WCI  25
OKLAHOMA CITY  FRZ DRZL  24  23  96 N13       30.33F VSB 3/4 WCI  12

......IOWA............

CITY           SKY/WX    TMP DP  RH WIND       PRES   REMARKS
DES MOINES     NOT AVBL
QUAD CITIES    FAIR      28  19  69 NE10      30.61R WCI  19

......ILLINOIS........

CITY           SKY/WX    TMP DP  RH WIND       PRES   REMARKS
QUINCY         NOT AVBL
CHICAGO        CLOUDY    29  20  69 NE8       30.63S WCI  21




USA.gov is the U.S. government's official web portal to all federal, state and local government web resources and services.